www.pogodaiklimat.ru

Погода и климат >> Архив погоды >> Россия >> Свердловская область >> Нижний Тагил


АРХИВ ПОГОДЫ в Нижнем Тагиле

Время (UTC), дата Ветер
(напр.,м/с)
 
Видим.   Явления Облачность Т
(С)
Тd
(С)
f
(%)
Тe
(С)
Тes
(С)
Комфортность P
(гПа)
Po
(гПа)
Тmin
(С)
Tmax
(С)
R
(мм)
R24
(мм)
S
(см)
09 13.04 СЗ 4-11
{11}
20 км 4/0
[Cc]
+6.5 -7.1 37 +4 +10 по сезону 1019.1 987.4
12 13.04 СЗ 3
{11}
20 км 8/0
[Cs]
+7.2 -7.6 34 +5 +8 по сезону 1019.0 987.3
15 13.04 С 3 20 км 8/0
[Cs]
+3.7 -8.9 39 +1 +1 по сезону 1020.0 987.9 +7.5
18 13.04 СВ 5 20 км 3/0
[Ci fib]
+0.6 -11.9 39 -4 -4 прохладно 1021.9 989.4
21 13.04 СВ 5
{10}
20 км ясно -2.0 -11.0 50 -8 -8 холодно 1024.8 991.9
00 14.04 СВ 3 20 км 4/0
[Ci fib]
-3.8 -11.2 56 -9 -9 холодно 1026.4 993.2
03 14.04 СВ 5 20 км ясно -3.5 -12.3 50 -10 -9 очень
холодно
1027.2 994.0 -4.7
06 14.04 СВ 6
{11}
20 км ясно -0.7 -13.3 38 -7 -3 очень
холодно
1027.6 994.7
09 14.04 СВ 5
{15}
20 км ясно +1.1 -16.8 25 -4 +2 очень
холодно
1027.2 994.6
12 14.04 СВ 3 20 км ясно +2.0 -17.3 22 -1 +2 холодно 1026.6 994.1
15 14.04 СВ 2 20 км ясно -1.3 -16.3 31 -4 -4 холодно 1026.7 993.8 +2.2
18 14.04 В 1 20 км ясно -5.6 -12.4 59 -8 -8 очень
холодно
1026.9 993.5
21 14.04 В 1 20 км ясно -9.2 -13.0 74 -11 -11 очень
холодно
1026.3 992.4
00 15.04 ЮВ 1 20 км ясно -9.9 -13.0 78 -12 -12 очень
холодно
1025.2 991.3
03 15.04 Ю 1 20 км ясно -3.7 -11.9 53 -5 -3 холодно 1023.2 990.1 -10.4
06 15.04 З 4 20 км ясно +2.3 -15.0 27 -1 +4 прохладно 1020.0 987.7
09 15.04 З 5
{10}
20 км 3/0
[Cs]
+5.5 -16.2 19 +2 +7 по сезону 1016.7 984.8
12 15.04 З 6-10
{11}
20 км 9/0
[As op]
+5.3 -14.5 22 +1 +2 холодно 1014.2 982.5
15 15.04 З 6-10
{11}
20 км 8/0
[As op Cs]
+3.7 -11.6 32 -1 -1 прохладно 1012.7 980.8 +6.8
18 15.04 З 4
{10}
20 км 8/0
[As op]
+1.6 -7.1 52 -3 -3 прохладно 1011.5 979.4
21 15.04 З 5
{10}
20 км 9/0
[As op]
+0.7 -1.9 83 -5 -5 прохладно 1009.7 977.6
00 16.04 З 5
{10}
20 км 8/0
[As op]
+0.4 -1.1 90 -6 -6 прохладно 1007.6 975.5
03 16.04 З 4 20 км {снег} 10/10 600 м
[Cb cap]
+1.1 -0.7 88 -4 -4 прохладно 1006.1 974.2 +0.2 0.0
06 16.04 С 5
{10}
4000 м слаб. ливневой снег 10/10 600 м
[Cb cap]
-0.0 -0.8 94 -6 -6 очень
холодно
1005.8 973.8 -0.1
09 16.04 С 5
{10}
2000 м слаб. ливневой снег 10/10 600 м
[Cb cap]
-1.4 -2.0 96 -8 -8 очень
холодно
1006.7 974.5
12 16.04 СЗ 4
{11}
20 км {ливн. осадки} 9/6 600 м
[Sc As op]
+0.4 -7.8 54 -4 -4 очень
холодно
1008.0 975.9
15 16.04 С 8-12
{18}
4000 м слаб. снег 10/0
[As op]
-4.4 -7.0 82 -13 -13 очень
холодно
1011.9 979.1 +2.0 3
18 16.04 С 8-12
{18}
20 км {снег} 8/8 600 м
[Sc]
-6.9 -12.9 62 -16 -16 очень
холодно
1016.3 983.0
21 16.04 С 5
{15}
20 км 8/8 600 м
[Sc]
-8.9 -14.5 64 -16 -16 очень
холодно
1019.6 986.0
00 17.04 С 6
{12}
20 км 9/4 600 м
[Sc As op]
-10.5 -14.2 74 -19 -19 очень
холодно
1021.7 987.8
03 17.04 С 7-12
{13}
20 км в посл. час снег 10/3 600 м
[Sc As op]
-10.8 -15.3 69 -20 -20 очень
холодно
1023.7 989.7 -10.8 0.0 1
06 17.04 С 8-12
{13}
20 км {снег} 8/8 600 м
[Cb cap]
-7.2 -14.3 57 -16 -16 очень
холодно
1025.2 991.6 -10.9
09 17.04 С 7-12
{14}
20 км 5/3 600 м
[Cb cap Cc]
-4.3 -14.5 45 -12 -10 очень
холодно
1026.5 993.2
12 17.04 СЗ 6
{12}
20 км ясно -1.8 -15.5 34 -8 -6 очень
холодно
1026.9 993.9
15 17.04 С 3
{12}
20 км 3/0
[Ci fib]
-2.6 -16.8 33 -7 -7 очень
холодно
1027.3 994.2 -1.4
18 17.04 СЗ 3 20 км ясно -4.2 -16.1 39 -9 -9 очень
холодно
1028.2 994.9
21 17.04 З 1 20 км ясно -7.3 -15.3 53 -9 -9 очень
холодно
1029.0 995.3
00 18.04 штиль 0 20 км 4/0
[Ci fib]
-11.6 -15.0 76 -12 -12 очень
холодно
1029.9 995.6
03 18.04 З 3 20 км 8/0
[Ci fib]
-5.2 -14.4 48 -10 -9 очень
холодно
1029.3 995.8 -12.6 0
06 18.04 З 6-10
{10}
20 км ясно -0.0 -15.5 30 -6 -2 очень
холодно
1028.0 995.2
09 18.04 З 5
{11}
20 км ясно +3.3 -16.0 23 -1 +5 холодно 1027.2 994.8
12 18.04 З 4
{10}
20 км ясно +4.4 -16.2 21 +1 +4 холодно 1026.5 994.3
15 18.04 З 2 20 км ясно +2.2 -16.0 25 0 0 прохладно 1026.4 993.9 +4.6
18 18.04 ЮВ 1 20 км ясно -4.5 -12.0 56 -6 -6 очень
холодно
1027.7 994.4
21 18.04 ЮВ 1 20 км ясно -6.1 -12.2 62 -8 -8 очень
холодно
1027.3 993.8
00 19.04 ЮВ 1 20 км ясно -7.6 -12.9 66 -10 -10 очень
холодно
1026.9 993.2
03 19.04 ЮЗ 1 20 км ясно -0.8 -12.4 41 -2 +1 прохладно 1025.0 992.2 -8.3
06 19.04 СЗ 4 20 км 3/0
[Ac As]
+5.0 -6.8 42 +2 +6 по сезону 1023.0 990.9
09 19.04 СЗ 4
{10}
20 км 9/5 600 м
[Sc As op]
+6.2 -7.2 38 +3 +5 прохладно 1021.6 989.7
12 19.04 С 5 20 км 5/5 600 м
[Sc]
+7.0 -7.5 35 +4 +5 прохладно 1020.6 988.9
15 19.04 СЗ 4
{10}
20 км 5/5 600 м
[Sc]
+4.1 -7.1 44 +1 +1 прохладно 1020.9 988.8 +7.9
18 19.04 СЗ 4 20 км 10/10 600 м
[Sc]
+3.1 -6.2 50 -1 -1 прохладно 1021.1 988.9
21 19.04 СЗ 3 20 км 10/10 600 м
[Sc]
+2.3 -5.1 58 -1 -1 по сезону 1020.7 988.4
00 20.04 СЗ 3 20 км 10/5 600 м
[Sc As op]
+1.9 -4.3 63 -2 -2 по сезону 1020.5 988.2
03 20.04 СЗ 3 20 км 10/0
[As op]
+2.2 -3.8 64 -2 -1 прохладно 1021.1 988.8 +1.6

 

Местоположение метеостанции Нижний Тагил (Свердловская область, Россия): широта 57.88 долгота 60.07 высота над уровнем моря 260 м.

В архиве по умолчанию представлена погода в Нижнем Тагиле за последнюю неделю. Архивные данные за месяц целиком и за предыдущие месяцы, начиная с января 2011 года, Вы можете получить, выбрав интересующий диапазон дат из раскрывающегося списка и нажав кнопку "Ввод!".


*Определитесь, кто Вы:
робот инопланетянин человек

Внимание! Время в таблицах - всемирное. Для получения местного времени необходимо прибавить поправку, которая равна 5 ч.

Смотрите также архив погоды в соседних городах и на ближайших метеорологических станциях:

Погода в Висиме (Свердловская область, Россия) (40 км)
Погода в Невьянске (Свердловская область, Россия) (44 км)
Погода в Кушве (Свердловская область, Россия) (52 км)
Погода в Кыне (Пермский край, Россия) (84 км)
Погода в Качканаре (Свердловская область, Россия) (94 км)
Погода в Алапаевске (Свердловская область, Россия) (96 км)
Погода в Бисере (Пермский край, Россия) (101 км)
Погода в Ревде (Свердловская область, Россия) (111 км)
Погода в Верхотурье (Свердловская область, Россия) (118 км)
Погода в Екатеринбурге (Свердловская область, Россия) (122 км)

Пояснения к столбцам:

Ветер - указаны скорость ветра в м/с - средняя за 10 мин, порывы в срок и между сроками (в фигурных скобках) и направление, откуда дует ветер: С - северный, СВ - северо-восточный, В - восточный, ЮВ - юго-восточный, Ю - южный, ЮЗ - юго-западный, З - западный, СЗ - северо-западный.
Видимость - горизонтальная дальность видимости в метрах или километрах. При видимости от 1 до 10 км при отсутствии осадков обычно наблюдается дымка, при ухудшении видимости до 1 км и менее - туман. В сухую погоду видимость может ухудшаться дымом, пылью или мглою.
Явления - указаны атмосферные явления, наблюдавшиеся в срок или в последний час перед сроком; фигурными скобками обозначены явления, наблюдавшиеся между сроками (за 1-3 часа до срока); квадратными скобками обозначены град или гололедные отложения с указанием их диаметра в мм.
Облачность - указаны через наклонную черту общая и нижняя облачность в баллах и высота нижней границы облаков в метрах; квадратными скобками обозначены формы облаков: Ci - перистые, Cs - перисто-слоистые, Cc - перисто-кучевые, Ac - высококучевые, As - высокослоистые, Sc - слоисто-кучевые, Ns - слоисто-дождевые, Cu - кучевые, Cb - кучево-дождевые. Подробнее классификацию облаков см. в Атласе облаков (PDF).
T - Температура воздуха - температура, измеренная на высоте 2 м над землей.
Td - Температура точки росы - температура, при понижении до которой содержащийся в воздухе водяной пар достигнет насыщения.
f - Относительная влажность воздуха - влажноcть воздуха, измеренная на высоте 2 м над землей.
Te - Эффективная температура - температура, которую ощущает одетый по сезону человек в тени. Характеристика душности погоды. При расчете учитывается влияние влажности воздуха и скорости ветра на теплоощущения человека.
Tes - Эффективная температура на солнце - температура, которую ощущает человек, с поправкой на солнечный нагрев. Характеристика знойности погоды. Зависит от высоты солнца над горизонтом, облачности и скорости ветра. Ночью, в пасмурную погоду, а также при ветре 12 м/с и более поправка равна нулю.
P - Атмосферное давление - приведенное к уровню моря атмосферное давление.
Po - Атмосферное давление - измеренное на уровне метеостанции атмосферное давление.
Tmin - Минимальная температура - минимум температуры воздуха на высоте 2 м над землей.
Tmax - Максимальная температура - максимум температуры воздуха на высоте 2 м над землей.
R - Количество осадков - Количество выпавших осадков за период времени, мм. При наведении курсора мыши на число - период времени, за который выпало указанное количество осадков.
R24 - Количество осадков - Количество выпавших осадков за 24 часа, мм.
S - Снежный покров - Высота снежного покрова, см. При наведении курсора мыши на число - состояние снежного покрова и степень покрытия местности в баллах.